User: anonymous
Location: Caltech
(34.1382°N, 118.1253°W)
Time: 20:54:27
(UTC-07:00)
Language:

Cosmos 1025 Rocket - Orbit

View from above orbital plane
View from above orbital plane
View from above satellite
View from above satellite

Ground track
Ground track

The orbit data is extracted from the following two-line orbital elements,

1 10974U 78067B   14261.92853317  .00000501  00000-0  53499-4 0  4008
2 10974 082.4839 038.1425 0018790 067.0673 069.0935 14.86654680958624
Epoch (UTC): 18 September 2014 22:17:05
Eccentricity: 0.0018790
inclination: 82.4839°
perigee height: 595 km
apogee height: 621 km
right ascension of ascending node: 38.1425°
argument of perigee: 67.0673°
revolutions per day: 14.86654680
mean anomaly at epoch: 69.0935°
orbit number at epoch: 95862

The dashed part of the orbit path shows where the satellite is in the earth's shadow,  

DLR